Regional Weather Roundup
Issued by NWS Albany, NY

Home | Current Version | Previous Version | Text Only | Print | Product List | Glossary On
Versions: 1 2 3 4 5 6 7 8 9 10 11 12 13 14 15 16 17 18 19 20 21 22 23 24 25 26 27
000
ASUS41 KALY 232310
RWRALY

NEW YORK STATE HOURLY WEATHER ROUNDUP
NATIONAL WEATHER SERVICE ALBANY NY
700 PM EDT SAT SEP 23 2017

NOTE: "FAIR" INDICATES FEW OR NO CLOUDS BELOW 12,000 FEET WITH NO
SIGNIFICANT WEATHER AND/OR NO OBSTRUCTIONS TO VISIBILITY.

NYZ032-033-038>043-046>054-057>066-NYZ062>081-082-084-240000-
EAST


CITY           SKY/WX    TMP DP  RH WIND       PRES   REMARKS
ALBANY         PTCLDY    72  59  63 W5        30.04R
GLENS FALLS    CLEAR     70  62  76 CALM      30.03S
POUGHKEEPSIE   CLEAR     75  57  53 CALM      30.01S
NEWBURGH       CLEAR     75  61  60 NE6       30.05S
MONTGOMERY     CLEAR     72  64  76 CALM      30.03S
WHITE PLAINS   CLEAR     76  52  43 NW7       30.02S
ISLIP          PTCLDY    78  61  55 N3        30.00R
NEW YORK CITY  CLEAR     83  53  35 N7        30.00R
CENTRAL PARK   CLEAR     82  49  31 N5        30.04R
$$

NYZ005>009-017-018-044>046-055-056-240000-
CENTRAL


CITY           SKY/WX    TMP DP  RH WIND       PRES   REMARKS
FULTON         CLEAR     74  59  59 CALM      30.07F
SYRACUSE       PTCLDY    76  59  55 NW3       30.06F
ROME           CLEAR     73  64  73 N3        30.08R
ELMIRA         CLEAR     77  66  68 CALM      30.09S
BINGHAMTON     CLEAR     75  60  59 NW8       30.13R
MONTICELLO     CLEAR     77  58  51 NW7       30.11R
$$

NYZ026>034-041>043-087-240000-
NORTH


CITY           SKY/WX    TMP DP  RH WIND       PRES   REMARKS
WATERTOWN      CLEAR     71  57  61 CALM      30.05F
FORT DRUM      NOT AVBL
OGDENSBURG     FAIR      75  62  64 SW3       30.03S
MASSENA        CLEAR     78  68  71 SW8       30.02S
SARANAC LAKE   CLEAR     73  64  73 CALM      30.09S
PLATTSBURGH    CLEAR     72  61  68 CALM      30.02S
$$

NYZ001>004-010>016-019>021-085-240000-
WEST


CITY           SKY/WX    TMP DP  RH WIND       PRES   REMARKS
NIAGARA FALLS  CLEAR     79  61  53 SW6       30.09S
BUFFALO        PTCLDY    77  57  50 SW6       30.10F
DUNKIRK        CLEAR     76  67  73 CALM      30.12R
JAMESTOWN      CLEAR     76  64  66 N6        30.17S
WELLSVILLE     CLEAR     76  61  59 NW5       30.19S
ROCHESTER      PTCLDY    83  67  58 W5        30.08S
PENN YAN       CLEAR     73  63  70 CALM      30.11S
$$

             KEY
       WCI = WIND CHILL INDEX
       VSB = VISIBILITY
       HX  = HEAT INDEX
$$




USA.gov is the U.S. government's official web portal to all federal, state and local government web resources and services.